Murray, KY

2:58 PM CDT on October 16, 2019 (GMT -0500)
Kyle-Oakley

Weather History for KCEY - June, 2019

Change the Weather History Date:

Sunday, June 2, 2019

  Actual Average (KPAH) Record (KPAH)
Temperature  
Mean Temperature 73 °F -  
Max Temperature 84 °F 81 °F 96 °F (1998)
Min Temperature 62 °F 61 °F 46 °F (1956)
Cooling Degree Days 8    
Growing Degree Days 23 (Base 50)    
Moisture  
Dew Point 64 °F    
Average Humidity 75    
Maximum Humidity 100    
Minimum Humidity 48    
Precipitation  
Precipitation 0.50 in - - ()
Sea Level Pressure  
Sea Level Pressure 29.91 in    
Wind  
Wind Speed 8 mph (WNW)    
Max Wind Speed 22 mph    
Max Gust Speed 28 mph    
Visibility 10 miles    
Events      
Averages and records for this station are not official NWS values.
T = Trace of Precipitation, MM = Missing Value Source: NWS Daily Summary

Daily Weather History Graph

Daily Weather History Graph

Search for Another Location

Airport or City:

Astronomy

Jun. 02, 2019 Rise Set
Actual Time 5:36 AM CDT 8:07 PM CDT
Civil Twilight 5:05 AM CDT 8:37 PM CDT
Nautical Twilight 4:28 AM CDT 9:14 PM CDT
Astronomical Twilight 3:47 AM CDT 9:56 PM CDT
Moon 5:12 AM CDT (6/2) 7:28 PM CDT (6/2)
Length of Visible Light 15h 31m
Length of Day
14h 31m
Waning Crescent, 1% of the Moon is Illuminated
Jun 2
Waning Crescent
Jun 3
New
Jun 10
First Quarter
Jun 17
Full
Jun 25
Last Quarter

Hourly Weather History & Observations

Time (CDT) Temp. Heat Index Dew Point Humidity Pressure Visibility Wind Dir Wind Speed Gust Speed Precip Events Conditions
12:15 AM 68.0 °F - 64.4 °F 88% 29.85 in 10.0 mi South 3.5 mph - N/A   Clear
12:35 AM 68.0 °F - 64.4 °F 88% 29.85 in 10.0 mi South 6.9 mph - N/A   Clear
12:55 AM 71.6 °F - 64.4 °F 78% 29.86 in 10.0 mi SSW 4.6 mph - N/A   Clear
1:15 AM 71.6 °F - 64.4 °F 78% 29.85 in 10.0 mi SSW 6.9 mph - N/A   Mostly Cloudy
1:35 AM 71.6 °F - 64.4 °F 78% 29.84 in 10.0 mi South 5.8 mph - N/A   Scattered Clouds
1:55 AM 71.6 °F - 64.4 °F 78% 29.87 in 10.0 mi NW 11.5 mph 24.2 mph N/A   Mostly Cloudy
2:15 AM 69.8 °F - 64.4 °F 83% 29.89 in 5.0 mi West 17.3 mph 27.6 mph 0.05 in   Overcast
2:35 AM 64.4 °F - 64.4 °F 100% 29.89 in 2.5 mi NW 12.7 mph 19.6 mph 0.26 in   Overcast
2:55 AM 64.4 °F - 64.4 °F 100% 29.92 in 7.0 mi WNW 21.9 mph 27.6 mph 0.32 in   Overcast
3:15 AM 62.6 °F - 62.6 °F 100% 29.94 in 3.0 mi West 15.0 mph 25.3 mph 0.07 in   Overcast
3:35 AM 62.6 °F - 62.6 °F 100% 29.89 in 4.0 mi East 3.5 mph - 0.15 in   Overcast
3:55 AM 62.6 °F - 62.6 °F 100% 29.85 in 10.0 mi East 6.9 mph - 0.17 in   Overcast
4:15 AM 62.6 °F - 62.6 °F 100% 29.86 in 10.0 mi South 10.4 mph - N/A   Mostly Cloudy
4:35 AM 62.6 °F - 62.6 °F 100% 29.86 in 10.0 mi South 10.4 mph - 0.01 in   Mostly Cloudy
4:55 AM 62.6 °F - 62.6 °F 100% 29.85 in 10.0 mi South 9.2 mph - 0.01 in   Scattered Clouds
5:15 AM 62.6 °F - 62.6 °F 100% 29.85 in 10.0 mi South 6.9 mph - N/A   Clear
5:35 AM 62.6 °F - 62.6 °F 100% 29.84 in 10.0 mi SSE 6.9 mph - N/A   Clear
5:55 AM 62.6 °F - 62.6 °F 100% 29.84 in 10.0 mi South 8.1 mph - N/A   Clear
6:15 AM 62.6 °F - 62.6 °F 100% 29.85 in 10.0 mi South 5.8 mph - N/A   Clear
6:35 AM 64.4 °F - 64.4 °F 100% 29.85 in 10.0 mi SSW 5.8 mph - N/A   Clear
6:55 AM 66.2 °F - 66.2 °F 100% 29.86 in 10.0 mi SSW 6.9 mph - N/A   Clear
7:15 AM 68.0 °F - 68.0 °F 100% 29.86 in 10.0 mi SSW 6.9 mph - N/A   Clear
7:35 AM 69.8 °F - 68.0 °F 94% 29.87 in 10.0 mi SW 9.2 mph - N/A   Clear
7:55 AM 71.6 °F - 68.0 °F 88% 29.88 in 10.0 mi SW 10.4 mph - N/A   Clear
8:15 AM 73.4 °F - 69.8 °F 88% 29.89 in 10.0 mi SW 10.4 mph - N/A   Clear
8:35 AM 73.4 °F - 68.0 °F 83% 29.90 in 10.0 mi WSW 8.1 mph - N/A   Clear
8:55 AM 75.2 °F - 68.0 °F 78% 29.91 in 10.0 mi WNW 9.2 mph - N/A   Clear
9:15 AM 75.2 °F - 68.0 °F 78% 29.91 in 10.0 mi West 8.1 mph - N/A   Clear
9:35 AM 75.2 °F - 68.0 °F 78% 29.92 in 10.0 mi West 9.2 mph - N/A   Clear
9:55 AM 77.0 °F - 68.0 °F 74% 29.92 in 10.0 mi West 10.4 mph - N/A   Clear
10:15 AM 75.2 °F - 66.2 °F 73% 29.92 in 10.0 mi WNW 12.7 mph - N/A   Clear
10:35 AM 77.0 °F - 66.2 °F 69% 29.92 in 10.0 mi WNW 11.5 mph 16.1 mph N/A   Clear
10:55 AM 77.0 °F - 66.2 °F 69% 29.93 in 10.0 mi WNW 11.5 mph - N/A   Clear
11:15 AM 77.0 °F - 66.2 °F 69% 29.93 in 10.0 mi WNW 11.5 mph 16.1 mph N/A   Clear
11:35 AM 78.8 °F - 64.4 °F 61% 29.93 in 10.0 mi WNW 10.4 mph 16.1 mph N/A   Clear
11:55 AM 78.8 °F - 66.2 °F 65% 29.93 in 10.0 mi West 6.9 mph - N/A   Clear
12:15 PM 78.8 °F - 66.2 °F 65% 29.93 in 10.0 mi NNW 6.9 mph - N/A   Clear
12:35 PM 80.6 °F 83.2 °F 68.0 °F 65% 29.93 in 10.0 mi WNW 10.4 mph - N/A   Clear
12:55 PM 82.4 °F 84.6 °F 66.2 °F 58% 29.93 in 10.0 mi WNW 8.1 mph - N/A   Clear
1:15 PM 82.4 °F 84.6 °F 66.2 °F 58% 29.92 in 10.0 mi West 6.9 mph - N/A   Clear
1:35 PM 82.4 °F 84.6 °F 66.2 °F 58% 29.92 in 10.0 mi WNW 8.1 mph - N/A   Clear
1:55 PM 84.2 °F 85.6 °F 64.4 °F 51% 29.91 in 10.0 mi NW 5.8 mph - N/A   Clear
2:15 PM 84.2 °F 85.0 °F 62.6 °F 48% 29.92 in 10.0 mi NW 9.2 mph - N/A   Clear
2:35 PM 84.2 °F 85.0 °F 62.6 °F 48% 29.91 in 10.0 mi NW 9.2 mph - N/A   Clear
2:55 PM 82.4 °F 83.9 °F 64.4 °F 54% 29.91 in 10.0 mi WNW 8.1 mph - N/A   Partly Cloudy
3:15 PM 84.2 °F 85.0 °F 62.6 °F 48% 29.91 in 10.0 mi NNW 6.9 mph - N/A   Scattered Clouds
3:35 PM 84.2 °F 85.0 °F 62.6 °F 48% 29.91 in 10.0 mi NNW 9.2 mph - N/A   Mostly Cloudy
3:55 PM 82.4 °F 83.4 °F 62.6 °F 51% 29.91 in 10.0 mi WNW 10.4 mph - N/A   Partly Cloudy
4:15 PM 84.2 °F 85.0 °F 62.6 °F 48% 29.91 in 10.0 mi WNW 9.2 mph 16.1 mph N/A   Partly Cloudy
4:35 PM 84.2 °F 85.0 °F 62.6 °F 48% 29.91 in 10.0 mi West 11.5 mph - N/A   Partly Cloudy
4:55 PM 84.2 °F 85.0 °F 62.6 °F 48% 29.91 in 10.0 mi West 9.2 mph - N/A   Clear
5:15 PM 82.4 °F 83.4 °F 62.6 °F 51% 29.91 in 10.0 mi WNW 9.2 mph - N/A   Clear
5:35 PM 82.4 °F 83.4 °F 62.6 °F 51% 29.91 in 10.0 mi West 11.5 mph - N/A   Partly Cloudy
5:55 PM 82.4 °F 83.9 °F 64.4 °F 54% 29.91 in 10.0 mi NW 10.4 mph - N/A   Mostly Cloudy
6:15 PM 82.4 °F 83.4 °F 62.6 °F 51% 29.91 in 10.0 mi NW 11.5 mph 16.1 mph N/A   Mostly Cloudy
6:35 PM 82.4 °F 83.4 °F 62.6 °F 51% 29.92 in 10.0 mi NW 9.2 mph - N/A   Scattered Clouds
6:55 PM 80.6 °F 81.8 °F 62.6 °F 54% 29.92 in 10.0 mi NNW 9.2 mph 17.3 mph N/A   Mostly Cloudy
7:15 PM 78.8 °F - 62.6 °F 57% 29.93 in 10.0 mi NW 6.9 mph - N/A   Overcast
7:35 PM 77.0 °F - 62.6 °F 61% 29.93 in 10.0 mi NW 8.1 mph - N/A   Mostly Cloudy
7:55 PM 75.2 °F - 62.6 °F 65% 29.94 in 10.0 mi NNW 5.8 mph - N/A   Clear
8:15 PM 75.2 °F - 62.6 °F 65% 29.94 in 10.0 mi NNW 4.6 mph - N/A   Clear
8:35 PM 73.4 °F - 62.6 °F 69% 29.94 in 10.0 mi NW 4.6 mph - N/A   Clear
8:55 PM 73.4 °F - 62.6 °F 69% 29.94 in 10.0 mi NW 4.6 mph - N/A   Partly Cloudy
9:15 PM 71.6 °F - 62.6 °F 73% 29.94 in 10.0 mi NW 4.6 mph - N/A   Partly Cloudy
9:35 PM 71.6 °F - 62.6 °F 73% 29.95 in 10.0 mi NW 5.8 mph - N/A   Clear
9:55 PM 71.6 °F - 62.6 °F 73% 29.96 in 10.0 mi NW 5.8 mph - N/A   Scattered Clouds
10:15 PM 69.8 °F - 62.6 °F 78% 29.97 in 10.0 mi NW 4.6 mph - N/A   Partly Cloudy
10:35 PM 69.8 °F - 62.6 °F 78% 29.97 in 10.0 mi NNW 5.8 mph - N/A   Clear
10:55 PM 68.0 °F - 64.4 °F 88% 29.97 in 10.0 mi NNW 5.8 mph - N/A   Clear
11:15 PM 68.0 °F - 64.4 °F 88% 29.97 in 10.0 mi NNW 4.6 mph - N/A   Clear
11:35 PM 68.0 °F - 64.4 °F 88% 29.98 in 10.0 mi NNW 6.9 mph - N/A   Clear
11:55 PM 66.2 °F - 64.4 °F 94% 29.97 in 10.0 mi NNW 5.8 mph - N/A   Clear